Darstellungsparameter: Aktuell verwendete Einstellungen:
Skalierung der Graphiken ... ?
xyx+y,   Skalierungsfaktor:      Skalierung: Modus: x, Faktor: 1
Darstellungszeitraum ... ?
Vom - - bis: - -   Zeitraum: 26.02.2021 - 26.02.2021
Min/Max/Avg-Anzeige ... ?
Zeige MMA aktuell
Zeige MMA Monat
Zeige MMA alles
Zeige --A aktuell
Zeige --A Monat
Zeige --A alles
Keine MMA-Anzeige
MMA:
Keine MMA-Graphiken
MMA-Basis: 26.02.2021 - 26.02.2021
Quicknavigation für Darstellung... ?
Tage:      1T, 2T, 3T, 5T -1T -2T -3T -5T +1T +2T +3T +5T
Wochen: 1W, 2W, 3W -1W -2W -3W +1W +2W +3W
Monate: 1M, 3M, 6M -1M -3M -6M +1M +3M +6M
Jahre:    1J, 3J, 5J, 10J -1J -3J -5J -10J +1J +3J +5J +10J
Nutze für die Darstellung ... ?
Originaldaten oder Mittelwerte auf ...
Stundenbasis Tagesbasis Wochenbasis
Monatsbasis Jahresbasis      Datenbasis: Original-Daten
Darstellen als:
Statistik (Auto) Statistik J:M      Darstellung:
Zur Graphik,    zurück zur Übersicht aller Sensoren.
 
Tabellarische Datenbersicht: ?
 
Sensor: Nr:Datum:Temp:Feuchte:Taupunkt:
Aussen-T/F 1 26-02-2021 01:00:00 6.5 C 89 % 4.82 C
2 26-02-2021 01:05:00 6.5 C 89 % 4.82 C
3 26-02-2021 01:10:00 6.5 C 89 % 4.82 C
4 26-02-2021 01:15:00 6.5 C 89 % 4.82 C
5 26-02-2021 01:20:00 6.5 C 89 % 4.82 C
6 26-02-2021 01:25:00 6.5 C 89 % 4.82 C
7 26-02-2021 01:30:00 6.4 C 88 % 4.56 C
8 26-02-2021 01:35:00 6.3 C 88 % 4.46 C
9 26-02-2021 01:40:00 6.2 C 88 % 4.36 C
10 26-02-2021 01:45:00 6.3 C 90 % 4.78 C
11 26-02-2021 01:50:00 6.4 C 90 % 4.88 C
12 26-02-2021 01:55:00 6.5 C 89 % 4.82 C
13 26-02-2021 02:00:00 6.4 C 89 % 4.72 C
14 26-02-2021 02:05:00 6.4 C 89 % 4.72 C
15 26-02-2021 02:10:00 6.3 C 89 % 4.62 C
16 26-02-2021 02:15:00 6.3 C 89 % 4.62 C
17 26-02-2021 02:20:00 6.3 C 89 % 4.62 C
18 26-02-2021 02:25:00 6.3 C 90 % 4.78 C
19 26-02-2021 02:30:00 6.3 C 90 % 4.78 C
20 26-02-2021 02:35:00 6.4 C 90 % 4.88 C
21 26-02-2021 02:40:00 6.4 C 90 % 4.88 C
22 26-02-2021 02:45:00 6.4 C 90 % 4.88 C
23 26-02-2021 02:50:00 6.5 C 90 % 4.98 C
24 26-02-2021 02:55:00 6.6 C 90 % 5.08 C
25 26-02-2021 03:00:00 6.8 C 91 % 5.44 C
Sensor: Nr:Datum:Temp:Feuchte:Taupunkt:
Aussen-T/F 26 26-02-2021 03:05:00 6.8 C 90 % 5.28 C
27 26-02-2021 03:10:00 6.9 C 90 % 5.38 C
28 26-02-2021 03:15:00 6.9 C 89 % 5.22 C
29 26-02-2021 03:20:00 7 C 89 % 5.31 C
30 26-02-2021 03:25:00 7 C 89 % 5.31 C
31 26-02-2021 03:30:00 7.1 C 89 % 5.41 C
32 26-02-2021 03:35:00 7.1 C 89 % 5.41 C
33 26-02-2021 03:40:00 7.1 C 88 % 5.25 C
34 26-02-2021 03:45:00 7.1 C 88 % 5.25 C
35 26-02-2021 03:50:00 7.1 C 88 % 5.25 C
36 26-02-2021 03:55:00 7.1 C 88 % 5.25 C
37 26-02-2021 04:00:00 7.1 C 88 % 5.25 C
38 26-02-2021 04:05:00 7.1 C 88 % 5.25 C
39 26-02-2021 04:10:00 7.2 C 89 % 5.51 C
40 26-02-2021 04:15:00 7.3 C 89 % 5.61 C
41 26-02-2021 04:20:00 7.3 C 88 % 5.45 C
42 26-02-2021 04:25:00 7.3 C 88 % 5.45 C
43 26-02-2021 04:30:00 7.2 C 88 % 5.35 C
44 26-02-2021 04:35:00 7.2 C 88 % 5.35 C
45 26-02-2021 04:40:00 7.2 C 88 % 5.35 C
46 26-02-2021 04:45:00 7.2 C 88 % 5.35 C
47 26-02-2021 04:50:00 7.3 C 88 % 5.45 C
48 26-02-2021 04:55:00 7.3 C 89 % 5.61 C
49 26-02-2021 05:00:00 7.4 C 89 % 5.71 C
50 26-02-2021 05:05:00 7.5 C 89 % 5.81 C
Sensor: Nr:Datum:Temp:Feuchte:Taupunkt:
Aussen-T/F 51 26-02-2021 05:10:00 7.6 C 89 % 5.91 C
52 26-02-2021 05:15:00 7.6 C 88 % 5.74 C
53 26-02-2021 05:20:00 7.7 C 88 % 5.84 C
54 26-02-2021 05:25:00 7.7 C 88 % 5.84 C
55 26-02-2021 05:30:00 7.7 C 87 % 5.68 C
56 26-02-2021 05:35:00 7.7 C 88 % 5.84 C
57 26-02-2021 05:40:00 7.7 C 87 % 5.68 C
58 26-02-2021 05:45:00 7.7 C 87 % 5.68 C
59 26-02-2021 05:50:00 7.7 C 88 % 5.84 C
60 26-02-2021 05:55:00 7.7 C 87 % 5.68 C
61 26-02-2021 06:00:00 7.7 C 88 % 5.84 C
62 26-02-2021 06:05:00 7.8 C 88 % 5.94 C
63 26-02-2021 06:10:00 7.8 C 88 % 5.94 C
64 26-02-2021 06:15:00 7.8 C 87 % 5.78 C
65 26-02-2021 06:20:00 7.8 C 87 % 5.78 C
66 26-02-2021 06:25:00 7.8 C 87 % 5.78 C
67 26-02-2021 06:30:00 7.8 C 87 % 5.78 C
68 26-02-2021 06:35:00 7.7 C 87 % 5.68 C
69 26-02-2021 06:40:00 8.1 C 91 % 6.72 C
70 26-02-2021 06:45:00 8.6 C 92 % 7.38 C
71 26-02-2021 06:50:00 8.7 C 92 % 7.47 C
72 26-02-2021 06:55:00 8.8 C 91 % 7.41 C
73 26-02-2021 07:00:00 8.8 C 90 % 7.25 C
74 26-02-2021 07:05:00 8.7 C 90 % 7.15 C
75 26-02-2021 07:10:00 8.7 C 90 % 7.15 C
Sensor: Nr:Datum:Temp:Feuchte:Taupunkt:
Aussen-T/F 76 26-02-2021 07:15:00 8.6 C 90 % 7.06 C
77 26-02-2021 07:20:00 8.5 C 90 % 6.96 C
78 26-02-2021 07:25:00 8.4 C 90 % 6.86 C
79 26-02-2021 07:30:00 8.3 C 90 % 6.76 C
80 26-02-2021 07:35:00 8.3 C 90 % 6.76 C
81 26-02-2021 07:40:00 8.2 C 90 % 6.66 C
82 26-02-2021 07:45:00 8.1 C 90 % 6.56 C
83 26-02-2021 07:50:00 8 C 90 % 6.46 C
84 26-02-2021 07:55:00 8 C 90 % 6.46 C
85 26-02-2021 08:00:00 7.9 C 90 % 6.36 C
86 26-02-2021 08:05:00 7.9 C 90 % 6.36 C
87 26-02-2021 08:10:00 7.8 C 90 % 6.27 C
88 26-02-2021 08:15:00 7.8 C 90 % 6.27 C
89 26-02-2021 08:20:00 7.8 C 90 % 6.27 C
90 26-02-2021 08:25:00 7.8 C 90 % 6.27 C
91 26-02-2021 08:30:00 7.8 C 90 % 6.27 C
92 26-02-2021 08:35:00 7.8 C 90 % 6.27 C
93 26-02-2021 08:40:00 7.8 C 90 % 6.27 C
94 26-02-2021 08:45:00 7.8 C 90 % 6.27 C
95 26-02-2021 08:50:00 7.8 C 91 % 6.43 C
96 26-02-2021 08:55:00 7.6 C 91 % 6.23 C
97 26-02-2021 09:00:00 7.5 C 91 % 6.13 C
98 26-02-2021 09:05:00 7.4 C 91 % 6.03 C
99 26-02-2021 09:10:00 7.3 C 91 % 5.93 C
100 26-02-2021 09:15:00 7.3 C 91 % 5.93 C
Sensor: Nr:Datum:Temp:Feuchte:Taupunkt:
Aussen-T/F 101 26-02-2021 09:20:00 7.2 C 91 % 5.83 C
102 26-02-2021 09:25:00 7 C 90 % 5.48 C
103 26-02-2021 09:30:00 6.9 C 90 % 5.38 C
104 26-02-2021 09:35:00 6.8 C 90 % 5.28 C
105 26-02-2021 09:40:00 6.7 C 90 % 5.18 C
106 26-02-2021 09:45:00 6.6 C 90 % 5.08 C
107 26-02-2021 09:50:00 6.6 C 90 % 5.08 C
108 26-02-2021 09:55:00 6.6 C 91 % 5.24 C
109 26-02-2021 10:00:00 6.6 C 91 % 5.24 C
110 26-02-2021 10:05:00 6.6 C 91 % 5.24 C
111 26-02-2021 10:10:00 6.6 C 92 % 5.4 C
112 26-02-2021 10:15:00 6.6 C 92 % 5.4 C
113 26-02-2021 10:20:00 6.6 C 92 % 5.4 C
114 26-02-2021 10:25:00 6.6 C 92 % 5.4 C
115 26-02-2021 10:30:00 6.6 C 92 % 5.4 C
116 26-02-2021 10:35:00 6.6 C 92 % 5.4 C
117 26-02-2021 10:40:00 6.7 C 92 % 5.49 C
118 26-02-2021 10:45:00 6.7 C 93 % 5.65 C
119 26-02-2021 10:50:00 6.7 C 93 % 5.65 C
120 26-02-2021 10:55:00 6.7 C 93 % 5.65 C
121 26-02-2021 11:00:00 6.8 C 93 % 5.75 C
122 26-02-2021 11:05:00 6.8 C 93 % 5.75 C
123 26-02-2021 11:10:00 6.8 C 93 % 5.75 C
124 26-02-2021 11:15:00 6.8 C 93 % 5.75 C
125 26-02-2021 11:20:00 6.8 C 93 % 5.75 C
Sensor: Nr:Datum:Temp:Feuchte:Taupunkt:
Aussen-T/F 126 26-02-2021 11:25:00 6.8 C 92 % 5.59 C
127 26-02-2021 11:30:00 6.8 C 93 % 5.75 C
128 26-02-2021 11:35:00 6.8 C 93 % 5.75 C
129 26-02-2021 11:40:00 6.8 C 93 % 5.75 C
130 26-02-2021 11:45:00 6.8 C 93 % 5.75 C
131 26-02-2021 11:50:00 6.8 C 93 % 5.75 C
132 26-02-2021 11:55:00 6.9 C 93 % 5.85 C
133 26-02-2021 12:00:00 6.8 C 93 % 5.75 C
134 26-02-2021 12:05:00 6.8 C 93 % 5.75 C
135 26-02-2021 12:10:00 6.8 C 93 % 5.75 C
136 26-02-2021 12:15:00 6.8 C 93 % 5.75 C
137 26-02-2021 12:20:00 6.9 C 93 % 5.85 C
138 26-02-2021 12:25:00 7.1 C 94 % 6.2 C
139 26-02-2021 12:30:00 7.2 C 94 % 6.3 C
140 26-02-2021 12:35:00 7.2 C 93 % 6.15 C
141 26-02-2021 12:40:00 7.3 C 94 % 6.4 C
142 26-02-2021 12:45:00 7.2 C 93 % 6.15 C
143 26-02-2021 12:50:00 7.1 C 93 % 6.05 C
144 26-02-2021 12:55:00 7.1 C 92 % 5.89 C
145 26-02-2021 13:00:00 7 C 92 % 5.79 C
146 26-02-2021 13:05:00 7 C 92 % 5.79 C
147 26-02-2021 13:10:00 7.1 C 92 % 5.89 C
148 26-02-2021 13:15:00 7.2 C 92 % 5.99 C
149 26-02-2021 13:20:00 7.3 C 93 % 6.25 C
150 26-02-2021 13:25:00 7.4 C 92 % 6.19 C
Sensor: Nr:Datum:Temp:Feuchte:Taupunkt:
Aussen-T/F 151 26-02-2021 13:30:00 7.6 C 92 % 6.39 C
152 26-02-2021 13:35:00 7.8 C 92 % 6.58 C
153 26-02-2021 13:40:00 7.8 C 91 % 6.43 C
154 26-02-2021 13:45:00 7.9 C 92 % 6.68 C
155 26-02-2021 13:50:00 8 C 92 % 6.78 C
156 26-02-2021 13:55:00 8 C 90 % 6.46 C
157 26-02-2021 14:00:00 8 C 90 % 6.46 C
158 26-02-2021 14:05:00 8 C 89 % 6.3 C
159 26-02-2021 14:10:00 8.1 C 89 % 6.4 C
160 26-02-2021 14:15:00 8.2 C 90 % 6.66 C
161 26-02-2021 14:20:00 8.3 C 90 % 6.76 C
162 26-02-2021 14:25:00 8.4 C 89 % 6.7 C
163 26-02-2021 14:30:00 8.4 C 88 % 6.53 C
164 26-02-2021 14:35:00 8.6 C 89 % 6.89 C
165 26-02-2021 14:40:00 8.7 C 89 % 6.99 C
166 26-02-2021 14:45:00 8.8 C 89 % 7.09 C
167 26-02-2021 14:50:00 8.9 C 89 % 7.19 C
168 26-02-2021 14:55:00 8.9 C 89 % 7.19 C
169 26-02-2021 15:00:00 8.9 C 88 % 7.02 C
170 26-02-2021 15:05:00 8.8 C 88 % 6.93 C
171 26-02-2021 15:10:00 8.7 C 89 % 6.99 C
172 26-02-2021 15:15:00 8.7 C 89 % 6.99 C
173 26-02-2021 15:20:00 8.7 C 89 % 6.99 C
174 26-02-2021 15:25:00 8.7 C 89 % 6.99 C
175 26-02-2021 15:30:00 8.7 C 89 % 6.99 C
Sensor: Nr:Datum:Temp:Feuchte:Taupunkt:
Aussen-T/F 176 26-02-2021 15:35:00 8.8 C 89 % 7.09 C
177 26-02-2021 15:40:00 8.8 C 89 % 7.09 C
178 26-02-2021 15:45:00 8.8 C 89 % 7.09 C
179 26-02-2021 15:50:00 8.8 C 89 % 7.09 C
180 26-02-2021 15:55:00 8.8 C 88 % 6.93 C
181 26-02-2021 16:00:00 8.8 C 88 % 6.93 C
182 26-02-2021 16:05:00 8.8 C 88 % 6.93 C
183 26-02-2021 16:10:00 8.9 C 87 % 6.86 C
184 26-02-2021 16:15:00 9.1 C 86 % 6.89 C
185 26-02-2021 16:20:00 9.1 C 83 % 6.37 C
186 26-02-2021 16:25:00 9.3 C 82 % 6.39 C
187 26-02-2021 16:30:00 9.3 C 80 % 6.03 C
188 26-02-2021 16:35:00 9.5 C 79 % 6.05 C
189 26-02-2021 16:40:00 9.5 C 77 % 5.68 C
190 26-02-2021 16:45:00 9.6 C 77 % 5.77 C
191 26-02-2021 16:50:00 9.8 C 76 % 5.78 C
192 26-02-2021 16:55:00 9.8 C 76 % 5.78 C
193 26-02-2021 17:00:00 10 C 78 % 6.35 C
194 26-02-2021 17:05:00 9.9 C 75 % 5.68 C
195 26-02-2021 17:10:00 9.9 C 77 % 6.06 C
196 26-02-2021 17:15:00 9.8 C 76 % 5.78 C
197 26-02-2021 17:20:00 9.6 C 75 % 5.39 C
198 26-02-2021 17:25:00 9.5 C 74 % 5.1 C
199 26-02-2021 17:30:00 9.3 C 73 % 4.72 C
200 26-02-2021 17:35:00 9.1 C 70 % 3.93 C
Sensor: Nr:Datum:Temp:Feuchte:Taupunkt:
Aussen-T/F 201 26-02-2021 17:40:00 9 C 75 % 4.81 C
202 26-02-2021 17:45:00 8.8 C 73 % 4.24 C
203 26-02-2021 17:50:00 8.7 C 72 % 3.94 C
204 26-02-2021 17:55:00 8.6 C 73 % 4.04 C
205 26-02-2021 18:00:00 8.4 C 75 % 4.23 C
206 26-02-2021 18:05:00 8.2 C 74 % 3.85 C
207 26-02-2021 18:10:00 8.1 C 75 % 3.94 C
208 26-02-2021 18:15:00 7.8 C 76 % 3.84 C
209 26-02-2021 18:20:00 7.4 C 76 % 3.45 C
210 26-02-2021 18:25:00 7.3 C 76 % 3.36 C
211 26-02-2021 18:30:00 7.1 C 77 % 3.35 C
212 26-02-2021 18:35:00 7.1 C 78 % 3.53 C
213 26-02-2021 18:40:00 7 C 79 % 3.61 C
214 26-02-2021 18:45:00 6.9 C 80 % 3.7 C
215 26-02-2021 18:50:00 6.9 C 81 % 3.87 C
216 26-02-2021 18:55:00 6.8 C 81 % 3.77 C
217 26-02-2021 19:00:00 6.8 C 82 % 3.95 C
218 26-02-2021 19:05:00 6.8 C 82 % 3.95 C
219 26-02-2021 19:10:00 6.7 C 81 % 3.68 C
220 26-02-2021 19:15:00 6.6 C 81 % 3.58 C
221 26-02-2021 19:20:00 6.6 C 82 % 3.75 C
222 26-02-2021 19:25:00 6.5 C 83 % 3.83 C
223 26-02-2021 19:30:00 6.5 C 84 % 4 C
224 26-02-2021 19:35:00 6.4 C 83 % 3.73 C
225 26-02-2021 19:40:00 6.3 C 83 % 3.63 C
Sensor: Nr:Datum:Temp:Feuchte:Taupunkt:
Aussen-T/F 226 26-02-2021 19:45:00 6.3 C 83 % 3.63 C
227 26-02-2021 19:50:00 6.3 C 85 % 3.97 C
228 26-02-2021 19:55:00 6.3 C 85 % 3.97 C
229 26-02-2021 20:00:00 6.3 C 86 % 4.14 C
230 26-02-2021 20:05:00 6.3 C 86 % 4.14 C
231 26-02-2021 20:10:00 6.3 C 86 % 4.14 C
232 26-02-2021 20:15:00 6.2 C 86 % 4.04 C
233 26-02-2021 20:20:00 6.2 C 86 % 4.04 C
234 26-02-2021 20:25:00 6.2 C 87 % 4.2 C
235 26-02-2021 20:30:00 6.2 C 87 % 4.2 C
236 26-02-2021 20:35:00 6.2 C 87 % 4.2 C
237 26-02-2021 20:40:00 6.2 C 87 % 4.2 C
238 26-02-2021 20:45:00 6.2 C 88 % 4.36 C
239 26-02-2021 20:50:00 6.2 C 88 % 4.36 C
240 26-02-2021 20:55:00 6.2 C 88 % 4.36 C
241 26-02-2021 21:00:00 6.1 C 88 % 4.27 C
242 26-02-2021 21:05:00 6.1 C 87 % 4.1 C
243 26-02-2021 21:10:00 6.1 C 87 % 4.1 C
244 26-02-2021 21:15:00 5.9 C 87 % 3.91 C
245 26-02-2021 21:20:00 5.8 C 87 % 3.81 C
246 26-02-2021 21:25:00 5.7 C 87 % 3.71 C
247 26-02-2021 21:30:00 5.4 C 87 % 3.41 C
248 26-02-2021 21:35:00 5.3 C 87 % 3.32 C
249 26-02-2021 21:40:00 5.1 C 87 % 3.12 C
250 26-02-2021 21:45:00 4.9 C 87 % 2.92 C
Sensor: Nr:Datum:Temp:Feuchte:Taupunkt:
Aussen-T/F 251 26-02-2021 21:50:00 4.7 C 88 % 2.89 C
252 26-02-2021 21:55:00 4.6 C 88 % 2.79 C
253 26-02-2021 22:00:00 4.5 C 89 % 2.85 C
254 26-02-2021 22:05:00 4.4 C 89 % 2.75 C
255 26-02-2021 22:10:00 4.2 C 89 % 2.55 C
256 26-02-2021 22:15:00 4.1 C 89 % 2.45 C
257 26-02-2021 22:20:00 3.9 C 89 % 2.26 C
258 26-02-2021 22:25:00 3.8 C 89 % 2.16 C
259 26-02-2021 22:30:00 3.6 C 89 % 1.96 C
260 26-02-2021 22:35:00 3.4 C 90 % 1.92 C
261 26-02-2021 22:40:00 3.3 C 90 % 1.82 C
262 26-02-2021 22:45:00 3.2 C 90 % 1.72 C
263 26-02-2021 22:50:00 3.2 C 91 % 1.88 C
264 26-02-2021 22:55:00 3.2 C 91 % 1.88 C

Legende:
   Min
   Max


Maximal/Minimal-Werte vom 26.02.2021 - 26.02.2021

Sensor Min Max Avg
Temp
(Aussen-T/F)
3.2 °C
26-02-2021  22:45:00
10 °C
26-02-2021  17:00:00
7.23 °C
Feuchte
(Aussen-T/F)
70 %
26-02-2021  17:35:00
94 %
26-02-2021  12:25:00
87.76 %
Taupunkt
(Aussen-T/F)
1.72 C
26-02-2021  22:45:00
7.47 C
26-02-2021  06:50:00
5.3 C

Die Daten stammen von einer Davis Vantage Pro 2 Wetter-Station und werden unter Linux mit der Software wview2wettercgi und aufbereitet. Alle Angaben erfolgen ohne Gewähr für ihre Vollständigkeit oder Richtigkeit.
Kontakt: Rainer Krienke krienke@uni-koblenz.de . Meine Webseiten an der Uni Koblenz oder privat.
Version: $Revision: 0.78 $